Wind_Speed
27 28 30 30 31 31 29 28 28 27 27 27 26 27 27 26 25 24 21 20 18 18 19 18 17 17 16 15 15 14 13 12 12 12 12 12 12 11 11 10 10 10 9 8 8 7 7 7 7
27 28 30 30 32 32 30 29 28 29 28 27 28 28 28 27 26 25 23 22 21 20 20 20 19 18 17 17 17 16 15 14 13 13 13 13 13 12 12 12 12 12 11 10 10 9 9 9 9
28 29 30 31 31 30 30 29 28 28 29 29 30 30 30 28 27 25 24 23 23 22 21 21 21 20 19 18 18 17 16 16 15 15 15 14 14 14 13 13 13 13 13 13 12 11 10 10 10
27 29 30 31 31 30 30 29 28 28 29 30 31 32 31 30 28 27 26 25 24 24 23 22 21 21 20 20 19 19 18 17 16 16 16 16 16 16 15 14 14 14 14 14 14 13 13 13 12
26 28 31 31 30 30 30 29 28 28 30 30 31 32 33 32 30 29 28 28 26 25 25 24 23 23 22 21 21 20 20 19 18 18 18 18 18 18 17 17 16 16 16 16 16 15 15 15 15
25 26 29 30 30 29 29 27 28 30 30 31 32 33 33 32 32 31 30 29 28 27 26 26 25 25 24 23 22 22 22 21 20 20 20 20 20 20 20 19 19 18 18 18 18 17 17 17 17
26 26 27 27 29 28 28 27 29 29 30 30 32 33 33 32 33 32 32 31 30 29 28 27 27 26 26 25 24 24 23 23 23 22 21 21 21 21 22 21 21 21 20 20 20 20 20 19 19
26 27 25 26 27 27 28 28 29 28 29 30 31 31 32 32 33 33 32 33 32 31 30 29 28 28 27 26 26 26 26 26 25 24 23 23 23 23 23 23 23 23 23 22 22 22 22 22 21
26 27 25 26 27 27 28 29 29 29 29 30 31 31 31 32 32 33 33 33 33 32 31 31 30 30 30 29 28 28 28 28 27 27 26 25 24 24 24 25 25 25 25 24 24 24 24 24 24
26 27 25 26 27 28 29 30 29 30 29 30 31 31 32 33 33 33 33 34 34 34 33 32 31 31 31 31 30 30 30 29 29 29 28 28 27 26 26 27 27 27 27 27 27 26 27 27 26
26 27 26 27 27 28 29 30 31 31 31 31 31 31 32 33 33 32 33 34 35 35 35 34 33 33 32 32 32 31 31 31 30 30 30 30 30 29 29 29 29 29 29 29 29 29 29 29 28
26 27 27 27 27 27 29 29 30 30 31 32 33 32 33 34 34 33 33 34 34 35 36 36 35 35 34 33 33 33 33 33 32 32 32 32 32 31 31 31 31 31 31 30 30 31 31 31 31
26 26 27 27 26 25 27 29 30 30 30 30 32 33 35 36 36 35 35 34 35 36 36 37 36 36 36 35 34 34 34 34 34 34 33 34 33 33 32 32 33 33 33 33 32 32 32 32 32
25 25 26 26 26 27 28 29 31 30 30 31 33 33 35 37 36 35 36 36 36 36 37 37 37 37 36 36 36 36 36 36 35 35 35 35 34 34 34 34 34 35 34 34 33 34 33 33 33
24 24 25 26 27 28 29 30 30 30 31 31 33 34 36 37 38 36 36 37 36 36 37 37 38 38 37 37 37 37 37 37 37 36 36 36 36 36 36 36 35 35 34 34 35 36 35 35 34
24 25 26 27 28 29 30 30 30 31 32 32 34 35 36 38 37 37 37 37 37 37 37 38 39 39 39 38 38 38 38 39 39 38 37 37 37 37 37 37 36 36 35 36 36 36 36 36 35
23 25 27 28 29 30 31 31 31 32 33 34 35 35 37 38 37 37 37 38 38 39 39 38 39 40 40 40 40 40 40 39 39 39 39 38 37 38 38 37 37 37 36 37 37 37 37 37 37
23 24 25 27 28 30 32 31 31 32 33 34 35 35 36 37 38 38 39 39 40 40 41 41 40 41 42 42 42 42 41 40 39 39 40 40 39 39 38 39 38 38 37 37 37 38 38 38 39
25 25 25 26 27 29 30 30 30 32 32 33 35 35 36 38 39 39 39 40 42 42 43 42 42 41 41 42 43 43 42 42 41 41 41 41 41 41 41 41 40 38 39 38 39 40 40 39 39
24 25 25 26 27 29 30 30 29 30 31 32 33 35 37 39 40 40 40 40 43 44 45 44 45 44 44 43 43 44 44 43 42 43 43 42 42 42 42 42 40 40 40 39 39 40 40 40 40
23 24 24 25 26 28 30 30 29 29 31 32 33 35 37 38 40 41 41 42 43 44 45 46 45 46 46 44 44 44 45 45 45 44 44 44 45 44 43 42 41 41 42 41 40 40 40 40 40
23 24 24 25 27 28 30 31 29 31 32 33 34 34 36 38 40 42 42 42 43 44 46 46 46 47 47 47 47 46 46 45 45 45 44 44 44 44 44 42 42 42 42 42 42 42 42 42 41
23 24 25 25 27 28 28 31 30 30 31 32 33 34 36 38 40 42 43 44 44 45 45 46 47 47 47 47 48 48 47 46 46 46 45 45 45 45 44 43 42 42 42 42 42 43 43 43 43
22 23 24 25 26 27 27 29 29 28 30 31 32 33 34 36 38 40 41 43 44 44 45 46 47 48 48 48 49 49 48 47 47 47 47 46 46 46 44 43 43 44 44 44 44 43 43 43 43
21 22 23 25 25 26 26 27 27 27 28 30 31 32 33 34 35 37 39 40 41 41 42 44 47 48 48 48 48 50 49 48 48 48 47 46 47 46 44 44 44 44 44 44 44 44 44 44 44
21 21 22 23 24 24 24 25 25 26 28 29 30 31 32 33 34 35 36 38 39 40 41 43 45 46 47 48 47 48 48 49 48 47 46 46 47 47 46 46 46 45 45 45 45 45 45 45 45
19 19 21 22 23 24 23 23 23 24 26 27 29 31 31 32 32 33 34 35 35 38 40 41 43 44 44 45 46 46 46 47 47 47 46 46 46 48 47 47 46 45 45 45 45 45 45 45 45
20 20 20 22 24 25 24 23 22 22 24 26 28 29 31 32 32 32 33 34 34 36 37 39 40 41 42 44 45 45 44 45 46 47 46 45 46 46 46 47 47 47 47 46 45 44 44 45 45
20 21 23 24 25 26 26 24 23 24 25 26 27 29 30 30 31 31 32 33 34 35 36 37 39 40 42 43 43 43 43 43 44 45 46 46 46 46 46 46 46 47 47 46 46 45 45 46 46
22 23 24 25 26 26 27 26 24 25 26 27 27 28 29 30 31 31 31 31 32 33 35 36 38 39 40 42 42 41 41 41 43 43 44 45 45 45 45 45 45 46 45 45 45 44 44 45 45
Wind_Direction
253 250 247 245 244 242 243 245 245 243 240 238 236 235 235 237 238 239 240 241 240 240 240 238 240 241 242 245 247 248 250 252 253 251 248 246 247 247 248 250 251 249 249 252 253 254 260 265 271
252 250 246 245 244 245 242 244 245 244 241 238 236 236 236 237 238 240 240 241 241 241 241 239 240 242 243 244 247 249 251 253 255 253 249 248 249 250 251 252 253 252 250 251 255 258 264 268 272
251 249 246 244 244 245 245 246 248 244 241 238 237 237 237 237 238 239 239 240 241 241 242 241 240 241 243 244 246 250 252 254 255 253 251 250 250 250 252 255 254 253 253 253 255 258 264 270 274
252 249 247 246 246 246 244 245 247 246 243 239 238 237 238 237 237 239 240 240 240 240 241 241 242 242 243 245 248 251 253 254 255 254 252 252 251 251 252 255 256 255 255 256 257 259 262 268 273
253 250 248 247 246 245 245 245 245 245 244 241 240 239 237 237 237 237 238 238 239 240 240 240 241 243 244 246 249 251 252 253 254 254 253 252 252 252 253 255 256 257 257 258 259 262 263 266 271
254 252 250 249 245 243 244 245 245 244 243 241 240 240 238 237 237 236 237 238 238 239 240 240 241 243 244 246 248 250 251 252 253 254 254 253 253 254 254 256 258 260 260 260 260 263 265 267 271
253 252 250 249 245 245 244 242 243 245 244 241 240 240 240 238 237 237 237 238 239 239 241 241 243 243 244 246 247 248 250 251 253 254 254 253 255 257 257 257 259 261 262 262 261 263 265 268 271
253 252 251 249 246 246 245 243 244 244 242 242 241 240 240 239 237 236 237 238 239 241 241 242 243 245 245 246 247 248 250 250 253 254 255 256 257 258 259 260 261 261 263 263 262 263 266 269 271
254 253 253 249 246 245 245 244 245 246 243 244 241 240 240 239 237 237 238 239 239 240 242 243 243 245 246 247 248 250 250 251 253 255 256 258 259 260 261 263 263 263 263 265 264 265 267 269 271
254 252 253 251 249 246 247 245 245 244 244 245 243 241 241 239 238 239 240 240 240 241 242 244 244 246 248 248 249 251 253 253 255 255 256 258 259 261 262 264 265 265 265 265 267 267 268 269 271
256 255 254 251 250 248 247 245 245 246 247 245 244 243 242 240 239 241 242 242 242 243 243 244 245 247 248 249 249 251 253 253 254 255 257 259 260 261 263 263 264 265 266 266 267 268 268 270 271
260 258 255 252 250 249 249 247 247 247 248 246 246 246 245 242 241 242 242 243 243 244 245 245 246 247 248 249 250 251 252 253 253 255 256 258 261 261 262 262 264 265 265 266 267 269 268 269 271
260 258 256 253 251 253 251 249 250 247 248 247 249 249 247 243 242 244 245 245 245 246 246 247 246 247 248 249 250 251 251 253 255 255 256 258 260 262 262 263 264 265 265 266 267 268 269 270 271
263 259 256 255 254 254 253 250 249 249 250 250 250 250 248 244 245 245 244 245 246 247 248 248 247 247 248 250 251 251 252 254 255 256 257 258 261 262 262 264 264 264 265 266 266 267 269 271 273
262 260 257 255 254 255 256 255 253 252 252 252 253 250 248 247 246 246 245 245 246 247 248 249 248 247 247 250 251 253 254 254 255 257 258 260 262 264 264 264 264 265 265 266 267 267 269 271 272
264 262 259 254 255 256 257 258 256 254 254 254 254 251 249 248 247 247 246 247 247 246 247 248 248 248 248 249 251 252 255 254 255 256 259 262 263 263 264 264 265 264 264 266 267 269 269 269 271
268 267 262 259 257 257 258 260 259 257 256 255 255 253 251 248 249 248 247 248 247 246 247 248 248 249 249 249 251 252 254 255 257 258 261 263 263 263 263 264 265 264 264 266 268 268 269 269 270
271 270 266 263 261 260 261 261 260 259 258 257 256 254 250 248 248 248 248 249 249 248 248 248 249 250 249 249 250 252 253 255 258 260 263 264 264 263 263 264 264 264 265 267 268 269 270 271 271
270 271 270 267 265 264 264 264 263 261 262 259 256 254 251 249 250 250 251 252 251 250 249 248 249 250 249 250 251 252 254 256 257 259 262 263 264 264 264 264 264 264 264 266 268 269 270 271 272
274 273 274 271 269 268 267 266 266 263 263 263 261 257 254 253 252 253 253 252 250 250 250 250 250 250 251 252 252 253 253 256 258 261 262 263 265 264 264 265 263 264 266 266 268 270 270 270 272
274 276 277 276 274 272 270 267 264 265 265 266 265 261 258 257 254 253 253 252 252 251 251 251 252 251 251 251 253 253 255 256 258 261 263 264 265 264 264 266 265 265 265 265 268 270 271 270 272
274 277 279 278 277 277 277 273 267 268 268 267 267 265 261 259 256 255 255 254 253 253 253 253 252 252 251 251 253 255 256 257 259 261 264 265 264 265 265 266 266 266 266 266 268 270 271 270 272
277 278 280 280 280 279 279 280 274 272 273 271 269 267 264 262 259 257 257 256 256 255 254 252 251 251 251 252 253 255 255 257 259 261 264 264 264 265 264 265 266 266 267 267 269 270 271 273 274
280 280 280 282 284 282 281 282 280 278 276 275 271 267 266 264 261 259 259 258 257 256 255 253 252 252 252 253 254 255 255 255 257 260 263 264 263 264 264 264 266 266 266 266 268 269 271 273 274
282 283 285 285 287 287 286 284 284 283 281 278 274 271 268 265 263 261 260 260 259 258 256 255 253 253 253 253 254 255 255 256 257 259 262 262 262 262 262 264 266 267 266 266 268 269 271 272 272
286 285 287 291 292 292 287 286 287 287 285 282 277 276 273 271 267 264 262 262 260 259 259 257 255 253 253 253 255 255 256 257 259 259 260 261 261 261 263 264 266 266 266 266 268 270 271 271 272
289 288 288 290 291 291 289 289 289 287 285 284 280 280 278 274 271 265 263 264 263 261 259 259 256 255 255 254 256 257 257 258 259 259 260 261 262 262 264 266 266 266 267 267 268 270 271 271 273
287 287 289 291 294 294 291 289 291 289 289 287 284 284 282 277 273 269 267 265 264 263 261 259 257 256 255 255 255 256 258 259 259 258 259 260 262 263 265 266 265 266 267 268 269 269 271 271 273
288 286 288 289 291 293 295 293 292 289 290 288 286 287 286 281 276 272 269 269 267 266 264 262 259 257 256 256 256 257 259 260 259 259 259 261 262 263 264 266 266 267 268 269 270 270 272 272 273
287 288 290 290 291 291 291 291 291 290 290 290 289 289 289 284 278 275 273 270 268 266 265 264 263 261 259 257 256 257 259 261 261 259 260 261 262 263 264 265 267 267 267 268 270 271 273 273 273
Height
5789 5790 5792 5794 5796 5798 5801 5804 5805 5808 5810 5813 5815 5817 5820 5823 5826 5830 5830 5830 5832 5834 5835 5837 5838 5840 5841 5842 5843 5844 5844 5845 5845 5846 5847 5847 5848 5849 5849 5850 5850 5851 5851 5851 5851 5851 5851 5851 5851
5783 5784 5786 5788 5789 5791 5796 5798 5800 5802 5805 5808 5810 5812 5814 5818 5820 5822 5825 5827 5829 5830 5832 5834 5835 5836 5838 5839 5840 5841 5842 5842 5843 5843 5844 5845 5846 5847 5847 5848 5848 5849 5849 5850 5850 5850 5850 5850 5850
5776 5777 5779 5781 5783 5786 5790 5792 5794 5797 5799 5802 5804 5807 5810 5813 5815 5817 5821 5823 5825 5827 5828 5830 5832 5833 5835 5836 5837 5838 5839 5840 5840 5841 5842 5842 5843 5844 5845 5846 5846 5847 5847 5848 5848 5848 5848 5848 5848
5769 5771 5772 5775 5777 5781 5784 5786 5787 5790 5792 5795 5798 5801 5804 5808 5810 5813 5816 5818 5820 5822 5824 5826 5828 5830 5831 5833 5834 5835 5836 5837 5837 5838 5838 5840 5841 5842 5842 5843 5844 5844 5845 5845 5846 5846 5846 5846 5846
5762 5764 5765 5767 5771 5775 5777 5780 5781 5784 5786 5789 5792 5795 5798 5802 5805 5808 5811 5813 5815 5818 5820 5822 5824 5826 5828 5829 5830 5831 5832 5833 5834 5835 5835 5836 5837 5839 5840 5840 5841 5841 5842 5842 5843 5843 5843 5843 5843
5756 5757 5759 5761 5765 5768 5771 5773 5775 5777 5780 5783 5785 5789 5792 5796 5799 5802 5805 5808 5810 5813 5815 5817 5819 5821 5823 5825 5826 5827 5828 5829 5830 5831 5832 5833 5834 5835 5836 5837 5838 5838 5839 5839 5840 5840 5840 5840 5840
5751 5751 5753 5756 5758 5761 5764 5767 5768 5771 5774 5777 5779 5783 5786 5790 5793 5796 5799 5802 5805 5807 5810 5812 5814 5816 5818 5820 5821 5822 5824 5825 5826 5827 5828 5829 5830 5831 5832 5833 5834 5835 5835 5836 5836 5837 5837 5837 5837
5744 5746 5748 5750 5752 5755 5758 5760 5762 5764 5768 5771 5774 5777 5780 5783 5787 5790 5793 5796 5799 5802 5804 5806 5809 5811 5813 5814 5816 5817 5819 5820 5821 5822 5823 5824 5826 5827 5828 5829 5830 5831 5831 5832 5832 5833 5833 5833 5833
5738 5741 5742 5744 5746 5749 5751 5754 5756 5759 5762 5765 5767 5771 5774 5776 5780 5783 5787 5790 5793 5796 5798 5800 5803 5805 5807 5809 5810 5812 5813 5814 5816 5817 5818 5819 5821 5822 5823 5824 5825 5826 5827 5827 5828 5828 5828 5829 5829
5733 5734 5738 5739 5740 5742 5745 5748 5751 5753 5756 5759 5761 5764 5767 5770 5774 5778 5781 5784 5787 5790 5792 5794 5796 5799 5801 5803 5804 5806 5807 5809 5810 5812 5813 5814 5816 5817 5818 5819 5820 5821 5822 5822 5823 5823 5824 5824 5824
5727 5729 5732 5733 5734 5736 5739 5741 5744 5747 5750 5752 5755 5758 5761 5764 5768 5771 5774 5777 5780 5783 5785 5787 5790 5792 5794 5796 5798 5800 5801 5803 5804 5806 5808 5809 5810 5811 5812 5814 5815 5815 5816 5817 5817 5818 5818 5818 5818
5722 5724 5725 5726 5728 5730 5733 5735 5738 5741 5744 5746 5748 5751 5754 5757 5761 5764 5767 5770 5773 5776 5778 5780 5783 5785 5787 5789 5791 5793 5795 5796 5798 5800 5801 5803 5804 5805 5806 5807 5808 5809 5810 5810 5811 5811 5812 5812 5812
5717 5718 5719 5721 5722 5725 5727 5729 5731 5735 5737 5739 5741 5744 5747 5750 5753 5757 5760 5763 5766 5768 5771 5773 5776 5778 5780 5782 5784 5786 5788 5790 5791 5793 5795 5796 5798 5799 5800 5800 5801 5802 5802 5803 5804 5805 5805 5805 5805
5712 5713 5714 5716 5717 5719 5721 5723 5725 5729 5730 5732 5734 5737 5739 5742 5745 5748 5752 5755 5758 5761 5763 5765 5768 5770 5773 5775 5777 5779 5781 5782 5784 5786 5787 5789 5790 5791 5792 5793 5793 5794 5795 5796 5796 5797 5797 5798 5798
5707 5708 5709 5710 5711 5713 5714 5717 5720 5722 5723 5725 5727 5729 5731 5734 5737 5741 5744 5748 5750 5753 5755 5757 5759 5762 5765 5767 5769 5771 5773 5775 5777 5778 5780 5781 5782 5783 5783 5784 5785 5786 5787 5788 5788 5788 5789 5790 5790
5702 5703 5704 5705 5706 5707 5709 5711 5714 5714 5715 5717 5719 5721 5724 5726 5730 5733 5736 5739 5742 5745 5747 5749 5751 5754 5756 5759 5761 5763 5765 5767 5769 5771 5772 5773 5774 5774 5775 5775 5776 5777 5778 5779 5780 5780 5781 5781 5781
5697 5697 5698 5699 5699 5700 5701 5704 5707 5707 5708 5709 5711 5713 5715 5719 5722 5725 5728 5731 5733 5736 5738 5741 5743 5745 5748 5750 5752 5754 5756 5758 5760 5762 5764 5764 5765 5765 5766 5767 5768 5769 5770 5771 5771 5772 5772 5773 5773
5692 5691 5692 5692 5692 5693 5694 5696 5699 5699 5699 5701 5702 5705 5707 5710 5714 5716 5719 5722 5724 5727 5730 5732 5734 5736 5739 5741 5743 5745 5748 5750 5752 5753 5754 5755 5756 5756 5757 5758 5759 5759 5761 5762 5763 5763 5763 5764 5764
5685 5685 5686 5686 5686 5686 5687 5689 5691 5691 5691 5693 5694 5696 5699 5701 5704 5706 5709 5712 5715 5718 5720 5723 5725 5727 5729 5731 5734 5736 5739 5741 5743 5744 5745 5746 5747 5747 5748 5749 5750 5750 5752 5753 5753 5754 5754 5754 5754
5680 5680 5680 5680 5680 5680 5681 5682 5684 5683 5684 5684 5685 5687 5689 5691 5694 5697 5699 5702 5705 5707 5710 5713 5716 5718 5720 5723 5725 5728 5730 5732 5734 5735 5736 5736 5737 5738 5738 5739 5740 5741 5742 5743 5744 5744 5745 5745 5745
5674 5674 5674 5674 5674 5673 5673 5676 5677 5677 5676 5676 5677 5678 5680 5682 5684 5687 5689 5691 5694 5697 5699 5702 5705 5708 5711 5713 5715 5718 5720 5722 5724 5725 5726 5726 5727 5728 5729 5729 5730 5731 5732 5733 5733 5734 5734 5735 5735
5669 5669 5668 5667 5667 5667 5667 5666 5671 5669 5668 5668 5669 5669 5670 5672 5674 5676 5679 5680 5683 5685 5688 5690 5693 5696 5700 5702 5705 5707 5709 5711 5713 5715 5716 5716 5717 5718 5719 5719 5720 5721 5722 5723 5723 5724 5724 5725 5725
5664 5663 5662 5661 5660 5661 5661 5658 5662 5661 5660 5660 5660 5660 5660 5661 5663 5665 5667 5669 5671 5673 5675 5677 5680 5684 5687 5691 5694 5696 5698 5701 5702 5704 5705 5706 5707 5707 5708 5709 5709 5710 5711 5712 5713 5713 5714 5715 5715
5659 5659 5658 5656 5655 5655 5656 5653 5654 5654 5653 5652 5651 5651 5651 5651 5652 5654 5655 5657 5658 5660 5662 5664 5667 5671 5675 5679 5681 5684 5687 5689 5691 5693 5694 5695 5696 5697 5697 5698 5699 5700 5701 5702 5702 5703 5704 5704 5704
5655 5655 5653 5651 5650 5650 5649 5647 5648 5648 5646 5644 5643 5643 5642 5642 5643 5644 5645 5645 5647 5648 5650 5652 5655 5658 5662 5666 5669 5671 5674 5677 5680 5682 5683 5684 5685 5686 5686 5687 5688 5689 5690 5690 5691 5692 5692 5693 5693
5651 5650 5650 5647 5645 5644 5643 5642 5643 5641 5639 5637 5636 5635 5634 5634 5634 5634 5635 5635 5636 5637 5638 5640 5642 5646 5650 5654 5657 5660 5662 5665 5667 5669 5671 5672 5673 5674 5675 5675 5676 5677 5678 5679 5680 5681 5681 5682 5682
5647 5646 5645 5643 5640 5639 5638 5637 5637 5635 5633 5631 5630 5629 5627 5626 5625 5625 5625 5625 5625 5626 5627 5629 5631 5634 5638 5641 5645 5648 5650 5653 5655 5657 5658 5660 5661 5662 5663 5664 5665 5665 5666 5667 5668 5669 5670 5670 5670
5643 5642 5640 5638 5635 5633 5633 5632 5631 5629 5626 5625 5624 5622 5620 5619 5617 5617 5616 5616 5616 5615 5616 5618 5620 5623 5626 5630 5633 5636 5638 5641 5643 5645 5647 5648 5650 5651 5652 5652 5653 5654 5654 5655 5656 5657 5658 5658 5658
5639 5638 5635 5633 5631 5629 5627 5629 5625 5623 5621 5619 5618 5616 5613 5612 5610 5609 5608 5608 5607 5607 5607 5608 5610 5613 5615 5618 5621 5624 5626 5628 5631 5633 5635 5637 5638 5639 5640 5641 5641 5642 5643 5643 5644 5645 5645 5646 5646
5633 5632 5630 5628 5626 5623 5621 5624 5620 5618 5615 5613 5611 5609 5607 5605 5603 5602 5601 5600 5599 5598 5598 5600 5601 5602 5604 5607 5609 5612 5615 5617 5619 5621 5623 5625 5626 5627 5628 5629 5630 5630 5631 5632 5632 5633 5633 5633 5633